[[{"header":{"parameterUnit":"m.s-1","parameterCategory":1,"la1":30.2991,"la2":30.254,"lo1":-89.0895,"lo2":-89.0444,"dy":0.0017,"dx":0.0017,"nx":28,"ny":28,"refTime":"2024-06-15T21:00:00:Z","depth":0,"parameterNumber":2,"parameterNumberName":"U-component_of_WINDS"},"data":[0,0,0,0,0,0,0,0,0,0,0,0,0,0,0,0,0,0,0,0,0,0,0,0,0,0,0,0,0,0,0,0,0,0,0,0,0,0,0,0,0,0,0,0,0,0,0,0,0,0,0,0,0,0,0,0,0,0,-2.7421,-2.7421,0,-2.7361,-2.7361,-2.736,-2.7344,-2.7344,-2.7344,-2.7345,-2.7281,-2.7279,-2.7277,0,0,0,0,0,0,0,0,0,0,0,0,0,-2.7523,-2.7521,-2.7421,-2.7421,-2.742,-2.7361,-2.736,-2.736,-2.7344,-2.7344,-2.7345,-2.7345,-2.7281,-2.7279,-2.7277,0,0,0,0,0,0,0,0,0,0,0,0,0,-2.7472,-2.752,-2.7422,-2.7405,-2.7403,-2.7361,-2.736,-2.7359,-2.7344,-2.7344,-2.7345,-2.7345,-2.7282,-2.7279,-2.7276,-2.7246,0,0,-2.7267,-2.7266,0,0,0,0,0,0,0,0,-2.7475,-2.7468,-2.7408,-2.7406,-2.7404,-2.7361,-2.7373,-2.7321,-2.7343,-2.7366,-2.7345,-2.7345,-2.7307,-2.7302,-2.7289,-2.7243,-2.7241,-2.7267,-2.7265,-2.7263,-2.7263,0,0,0,0,0,0,0,-2.7479,-2.7471,-2.7397,-2.7407,-2.7405,-2.7401,-2.7394,-2.7363,-2.7334,-2.7364,-2.7363,-2.7356,-2.7306,-2.7292,-2.7287,-2.724,-2.7267,-2.7264,-2.7262,-2.7261,-2.7169,-2.7169,0,0,0,0,0,0,-2.7485,-2.7474,-2.7399,-2.7396,-2.7442,-2.7398,-2.7391,-2.7374,-2.7334,-2.7329,-2.7356,-2.7356,-2.7297,-2.7291,-2.7285,-2.7249,-2.7263,-2.7261,-2.7259,-2.717,-2.7169,-2.7168,0,0,0,0,0,0,-2.7487,-2.7479,-2.7402,-2.7434,-2.7424,-2.7396,-2.7377,-2.7372,-2.7359,-2.7328,-2.7323,-2.7347,-2.7297,-2.7289,-2.7257,-2.7246,-2.7259,-2.7256,-2.717,-2.717,-2.7169,-2.7175,0,0,0,0,0,0,-2.749,-2.7479,-2.7467,-2.7434,-2.7423,-2.7374,-2.7376,-2.7371,-2.7354,-2.7353,-2.7318,-2.7313,-2.7297,-2.7262,-2.7254,-2.7242,-2.7254,-2.7171,-2.717,-2.7169,-2.7175,-2.7174,-2.7173,0,0,0,0,0,-2.7494,-2.747,-2.7467,-2.7458,-2.7407,-2.7374,-2.7367,-2.735,-2.7353,-2.7341,-2.7322,-2.7314,-2.7249,-2.7258,-2.7249,-2.7237,-2.7172,-2.717,-2.7169,-2.7176,-2.7175,-2.7173,0,0,0,0,0,0,-2.7501,-2.7466,-2.7461,-2.7426,-2.7404,-2.7371,-2.7355,-2.7348,-2.7323,-2.7323,-2.7302,-2.7295,-2.7264,-2.7247,-2.7258,-2.7207,-2.721,-2.7207,-2.7219,-2.7217,-2.7216,-2.722,-2.7251,0,0,0,0,0,-2.7499,-2.7475,-2.7445,-2.7417,-2.7406,-2.7383,-2.7368,-2.7357,-2.7332,-2.7321,-2.73,-2.7275,-2.725,-2.7233,-2.7207,-2.7174,-2.7167,-2.7161,-2.716,-2.716,-2.7156,-2.714,-2.7137,-2.7164,-2.7164,-2.7164,0,0,-2.7493,-2.7471,-2.7457,-2.7418,-2.7399,-2.7375,-2.7375,-2.7348,-2.733,-2.7317,-2.7285,-2.7269,-2.7241,-2.7208,-2.7193,-2.7193,-2.7148,-2.7158,-2.7158,-2.7155,-2.7138,-2.7136,-2.7133,-2.7163,-2.7163,-2.7163,0,0,-2.7471,-2.7452,-2.7427,-2.7409,-2.7381,-2.7366,-2.7361,-2.733,-2.7319,-2.7288,-2.7278,-2.7257,-2.7212,-2.7193,-2.7177,-2.7153,-2.7145,-2.7145,-2.7139,-2.7123,-2.7121,-2.7119,-2.711,-2.7108,-2.7143,-2.7143,-2.7143,0,-2.7467,-2.743,-2.7415,-2.739,-2.7374,-2.7364,-2.7339,-2.7322,-2.7287,-2.7276,-2.7278,-2.7224,-2.7204,-2.7168,-2.7163,-2.715,-2.7144,-2.7148,-2.7122,-2.712,-2.7118,-2.711,-2.7107,-2.7143,-2.7143,-2.7143,-2.7143,0,-2.7428,-2.7403,-2.7387,-2.7355,-2.7337,-2.7313,-2.7294,-2.7278,-2.727,-2.7256,-2.7225,-2.7202,-2.7172,-2.7163,-2.7154,-2.7126,-2.7128,-2.7127,-2.7129,-2.7116,-2.7108,-2.7105,-2.7143,-2.7143,-2.7143,-2.7143,0,0,-2.7404,-2.7367,-2.7362,-2.7348,-2.7319,-2.7299,-2.7275,-2.7248,-2.7235,-2.7213,-2.7192,-2.7157,-2.7157,-2.7139,-2.7128,-2.7115,-2.7098,-2.7115,-2.7114,-2.7113,-2.7068,-2.7069,-2.7065,-2.7094,-2.7093,-2.7093,-2.707,0,-2.7378,-2.7335,-2.7322,-2.7286,-2.7264,-2.7256,-2.7236,-2.7216,-2.7203,-2.7182,-2.7167,-2.7143,-2.7144,-2.7134,-2.712,-2.7103,-2.7089,-2.7105,-2.7075,-2.7074,-2.7081,-2.7061,-2.7061,-2.704,-2.7067,-2.7066,-2.7066,0,-2.734,-2.7319,-2.7281,-2.7257,-2.7248,-2.7229,-2.7205,-2.7186,-2.7164,-2.7155,-2.7138,-2.7129,-2.7105,-2.7111,-2.7078,-2.7089,-2.7077,-2.7068,-2.7067,-2.7062,-2.7068,-2.7055,-2.7033,-2.703,-2.7061,-2.7061,-2.7062,0,-2.7327,-2.7289,-2.7262,-2.7251,-2.7222,-2.721,-2.7197,-2.7176,-2.7162,-2.7141,-2.7132,-2.7108,-2.7094,-2.7076,-2.7062,-2.7068,-2.7031,-2.7035,-2.7023,-2.7024,-2.7014,-2.7014,-2.6989,-2.7008,-2.7008,-2.7008,-2.7008,0,-2.7298,-2.7275,-2.7256,-2.7239,-2.7215,-2.7202,-2.7178,-2.7165,-2.7147,-2.7128,-2.712,-2.7102,-2.7085,-2.7066,-2.7054,-2.703,-2.7024,-2.7016,-2.7013,-2.7016,-2.7017,-2.7007,-2.7007,-2.7007,-2.7007,-2.7007,-2.7008,0,-2.7277,-2.7264,-2.7234,-2.7211,-2.7205,-2.7188,-2.7168,-2.7152,-2.7141,-2.7117,-2.7111,-2.7092,-2.7069,-2.7054,-2.7024,-2.7017,-2.699,-2.6988,-2.6998,-2.6996,-2.6985,-2.6986,-2.6951,-2.6946,-2.6969,-2.6969,-2.6969,0,-2.7259,-2.7242,-2.7218,-2.7206,-2.7194,-2.7173,-2.7159,-2.7147,-2.7133,-2.7109,-2.7096,-2.7074,-2.7054,-2.7019,-2.7002,-2.698,-2.6977,-2.6966,-2.6973,-2.6978,-2.6977,-2.6978,-2.6976,-2.6964,-2.6964,-2.6964,-2.6964,0,-2.7228,-2.7223,-2.7204,-2.7183,-2.7167,-2.715,-2.7133,-2.7123,-2.7108,-2.7093,-2.707,-2.7056,-2.7027,-2.7005,-2.6982,-2.697,-2.6964,-2.6963,-2.6959,-2.6961,-2.6967,-2.6964,-2.6994,-2.6963,-2.6963,-2.6963,-2.6963,-2.6963,-2.7208,-2.7193,-2.7175,-2.7154,-2.7141,-2.7126,-2.7111,-2.7099,-2.708,-2.7056,-2.7051,-2.7027,-2.7009,-2.6978,-2.6966,-2.6948,-2.6949,-2.6943,-2.6942,-2.694,-2.694,-2.6972,-2.6944,-2.6944,-2.6944,-2.6944,-2.6944,0,-2.7176,-2.7165,-2.7147,-2.7124,-2.7109,-2.7108,-2.709,-2.7077,-2.7057,-2.7041,-2.7023,-2.6999,-2.6978,-2.6962,-2.6941,-2.693,-2.6927,-2.6925,-2.6925,-2.6922,-2.694,-2.6946,-2.6928,-2.6928,-2.6928,-2.6928,-2.6928,-2.6928,-2.7158,-2.7134,-2.7128,-2.7097,-2.7086,-2.7064,-2.7054,-2.7041,-2.7028,-2.7002,-2.6985,-2.6976,-2.696,-2.6939,-2.692,-2.6916,-2.6909,-2.6907,-2.6902,-2.6919,-2.6921,-2.6922,-2.6927,-2.6906,-2.6906,-2.6886,-2.6885,-2.6885]},{"header":{"parameterUnit":"m.s-1","parameterCategory":1,"la1":30.2991,"la2":30.254,"lo1":-89.0895,"lo2":-89.0444,"dy":0.0017,"dx":0.0017,"nx":28,"ny":28,"refTime":"2024-06-15T21:00:00:Z","depth":0,"parameterNumber":3,"parameterNumberName":"V-component_of_WINDS"},"data":[0,0,0,0,0,0,0,0,0,0,0,0,0,0,0,0,0,0,0,0,0,0,0,0,0,0,0,0,0,0,0,0,0,0,0,0,0,0,0,0,0,0,0,0,0,0,0,0,0,0,0,0,0,0,0,0,0,0,2.4318,2.4318,0,2.4341,2.4341,2.4342,2.442,2.4421,2.4423,2.4425,2.4442,2.4441,2.444,0,0,0,0,0,0,0,0,0,0,0,0,0,2.4335,2.4334,2.4318,2.4318,2.4318,2.4341,2.4341,2.4342,2.4419,2.4421,2.4424,2.4426,2.4443,2.4441,2.444,0,0,0,0,0,0,0,0,0,0,0,0,0,2.434,2.4334,2.4318,2.436,2.4364,2.4341,2.4341,2.4342,2.4419,2.4421,2.4424,2.4427,2.4443,2.4441,2.444,2.4376,0,0,2.4434,2.4434,0,0,0,0,0,0,0,0,2.4339,2.4339,2.4353,2.4357,2.4361,2.438,2.4354,2.4353,2.4418,2.4398,2.4425,2.4428,2.4419,2.4419,2.4418,2.4377,2.4377,2.4434,2.4433,2.4432,2.4432,0,0,0,0,0,0,0,2.4339,2.4338,2.4327,2.4353,2.4358,2.4376,2.438,2.4354,2.4393,2.44,2.4405,2.4408,2.4422,2.4419,2.4419,2.4378,2.4434,2.4433,2.4432,2.4431,2.4284,2.4281,0,0,0,0,0,0,2.4333,2.4337,2.4326,2.4327,2.4357,2.4374,2.4378,2.4371,2.4394,2.44,2.4405,2.4411,2.4421,2.4421,2.442,2.4345,2.4432,2.4431,2.443,2.4287,2.4283,2.428,0,0,0,0,0,0,2.4333,2.4332,2.4325,2.4334,2.4335,2.437,2.4363,2.437,2.4368,2.4398,2.4405,2.4396,2.4423,2.4422,2.4386,2.4346,2.443,2.4428,2.429,2.4286,2.4282,2.4195,0,0,0,0,0,0,2.4334,2.4331,2.4308,2.4333,2.4334,2.4292,2.4361,2.4369,2.4366,2.4373,2.4391,2.4396,2.4425,2.4389,2.4385,2.4345,2.4427,2.4294,2.4288,2.4283,2.4201,2.4188,2.4177,0,0,0,0,0,2.4334,2.4282,2.4307,2.4305,2.4306,2.429,2.429,2.4326,2.4362,2.4338,2.4358,2.4396,2.4352,2.4384,2.438,2.434,2.4296,2.429,2.4283,2.4207,2.4191,2.4177,0,0,0,0,0,0,2.4248,2.4285,2.4314,2.4268,2.4276,2.4303,2.4274,2.4308,2.4304,2.4311,2.4355,2.4358,2.4315,2.4325,2.436,2.4279,2.4331,2.4323,2.4273,2.4258,2.4246,2.4243,2.4425,0,0,0,0,0,2.4225,2.421,2.4243,2.42,2.4202,2.4238,2.4232,2.426,2.4268,2.4271,2.4287,2.4292,2.428,2.427,2.4261,2.4205,2.4208,2.4175,2.4163,2.4153,2.4144,2.4113,2.4098,2.4259,2.4259,2.4259,0,0,2.4175,2.4193,2.4181,2.4183,2.4192,2.4174,2.4239,2.4218,2.4204,2.4267,2.4233,2.4246,2.4255,2.4208,2.4188,2.4214,2.4101,2.4144,2.4136,2.4133,2.4105,2.409,2.4076,2.4255,2.4256,2.4256,0,0,2.4074,2.4088,2.4052,2.4061,2.4074,2.4098,2.409,2.4113,2.4124,2.4093,2.4139,2.4123,2.4101,2.4105,2.4104,2.4006,2.404,2.4002,2.3936,2.3905,2.3892,2.3881,2.3843,2.383,2.3994,2.3994,2.3994,0,2.4008,2.3985,2.4029,2.4005,2.4003,2.4063,2.4026,2.4031,2.404,2.4036,2.4067,2.4041,2.4051,2.4005,2.3981,2.398,2.3969,2.3998,2.3891,2.3881,2.3871,2.3835,2.3821,2.3989,2.399,2.399,2.3991,0,2.3903,2.3886,2.3856,2.3865,2.3861,2.383,2.3868,2.3858,2.3887,2.3907,2.3873,2.3888,2.3882,2.3874,2.3901,2.3831,2.3847,2.3884,2.3936,2.385,2.3817,2.3804,2.3982,2.3984,2.3985,2.3987,0,0,2.3745,2.3781,2.3769,2.3773,2.3794,2.378,2.3752,2.3749,2.3738,2.3743,2.3718,2.37,2.3734,2.3733,2.3761,2.3735,2.3653,2.3775,2.3776,2.3749,2.3574,2.3544,2.3527,2.3678,2.3675,2.3674,2.3572,0,2.3647,2.3602,2.3641,2.3588,2.3571,2.3629,2.3604,2.3613,2.3632,2.3619,2.364,2.3625,2.3673,2.3672,2.3649,2.3668,2.3618,2.3676,2.3652,2.365,2.3644,2.3511,2.3478,2.3382,2.356,2.3558,2.3557,0,2.3525,2.3526,2.3471,2.3495,2.349,2.3467,2.3466,2.3455,2.3466,2.3481,2.3481,2.3517,2.3489,2.3543,2.3504,2.3543,2.3536,2.3544,2.3541,2.3536,2.3595,2.3499,2.3352,2.3336,2.3537,2.3539,2.354,0,2.3411,2.3399,2.3365,2.3367,2.3395,2.3377,2.3388,2.3402,2.3397,2.3396,2.3393,2.3389,2.3385,2.338,2.3413,2.345,2.3368,2.3426,2.3377,2.3376,2.3354,2.3354,2.32,2.3356,2.3356,2.3356,2.3357,0,2.3294,2.3258,2.3314,2.3292,2.3252,2.3299,2.3257,2.3274,2.3286,2.3267,2.3317,2.3297,2.3344,2.3329,2.3355,2.3317,2.3316,2.3325,2.3332,2.3319,2.3317,2.3311,2.3317,2.3352,2.3353,2.3354,2.3355,0,2.3159,2.3195,2.3161,2.3191,2.3198,2.3167,2.3192,2.3172,2.3196,2.3171,2.3168,2.3204,2.3189,2.3223,2.3212,2.3229,2.3174,2.3193,2.317,2.3175,2.3123,2.3126,2.2957,2.2936,2.3108,2.3107,2.3105,0,2.308,2.3053,2.3082,2.3073,2.3082,2.3068,2.3064,2.3109,2.3102,2.3113,2.3091,2.3081,2.3075,2.3048,2.3071,2.3063,2.308,2.3022,2.3079,2.3066,2.3075,2.3075,2.3071,2.3008,2.3006,2.3004,2.3003,0,2.2935,2.2955,2.2948,2.2947,2.2942,2.2943,2.2947,2.2937,2.2985,2.2975,2.2961,2.2957,2.2947,2.2935,2.2933,2.2942,2.2978,2.2986,2.2973,2.2957,2.2944,2.2947,2.3134,2.2988,2.299,2.2991,2.2992,2.2992,2.2823,2.2802,2.2818,2.2809,2.2818,2.2821,2.2804,2.2826,2.2816,2.2813,2.284,2.282,2.2832,2.2833,2.2838,2.2822,2.2848,2.2831,2.2826,2.282,2.281,2.295,2.2822,2.2822,2.2823,2.2823,2.2824,0,2.2678,2.2692,2.2684,2.2689,2.2681,2.2722,2.2729,2.2718,2.2701,2.271,2.2704,2.2687,2.2676,2.27,2.2693,2.2675,2.2691,2.2671,2.267,2.2671,2.2789,2.2798,2.2657,2.2657,2.2657,2.2657,2.2657,2.2658,2.2601,2.2567,2.2589,2.2558,2.2573,2.2555,2.2555,2.2558,2.2565,2.2545,2.2538,2.2555,2.2569,2.2563,2.2554,2.2561,2.2554,2.2527,2.2539,2.2647,2.2663,2.2679,2.2688,2.2526,2.2526,2.2423,2.2422,2.2421]}]]